date,City,No. Stations,Air Quality,Index Value,Prominent Pollutant
2019-02-05,Jind,1.0,Poor,261,PM2.5
2019-02-06,Jind,1.0,Poor,296,PM2.5
2019-02-07,Jind,1.0,Poor,215,PM2.5
2019-02-08,Jind,1.0,Satisfactory,88,PM2.5
2019-02-09,Jind,1.0,Satisfactory,89,PM10
2019-02-10,Jind,1.0,Moderate,121,PM10
2019-02-11,Jind,1.0,Moderate,198,PM2.5
2019-02-12,Jind,1.0,Poor,210,PM2.5
2019-02-13,Jind,1.0,Poor,233,PM2.5
2019-02-14,Jind,1.0,Poor,275,PM2.5
2019-02-15,Jind,1.0,Poor,235,PM2.5
2019-02-16,Jind,1.0,Moderate,174,PM2.5
2019-02-17,Jind,1.0,Moderate,138,PM2.5
2019-02-18,Jind,1.0,Moderate,156,PM2.5
2019-02-19,Jind,1.0,Moderate,105,PM10
2019-02-20,Jind,1.0,Poor,232,PM2.5
2019-02-21,Jind,1.0,Moderate,152,OZONE
2019-02-22,Jind,1.0,Moderate,106,PM10
2019-02-23,Jind,1.0,Satisfactory,71,OZONE
2019-02-24,Jind,1.0,Moderate,110,PM2.5
2019-02-25,Jind,1.0,Moderate,128,PM2.5
2019-02-26,Jind,1.0,Satisfactory,75,OZONE
2019-02-27,Jind,1.0,Satisfactory,69,OZONE
2019-02-28,Jind,1.0,Satisfactory,93,PM2.5
2019-03-01,Jind,1.0,Moderate,133,PM2.5
2019-03-02,Jind,1.0,Moderate,103,PM2.5
2019-03-03,Jind,1.0,Moderate,105,PM2.5
2019-03-04,Jind,1.0,Satisfactory,88,PM10
2019-03-05,Jind,1.0,Satisfactory,83,PM10
2019-03-06,Jind,1.0,Satisfactory,97,PM10
2019-03-07,Jind,1.0,Moderate,119,PM10
2019-03-08,Jind,1.0,Moderate,115,PM10
2019-03-09,Jind,1.0,Moderate,106,PM10
2019-03-10,Jind,1.0,Satisfactory,99,PM10
2019-03-11,Jind,1.0,Moderate,111,PM10
2019-03-12,Jind,1.0,Moderate,103,PM10
2019-03-13,Jind,1.0,Moderate,140,PM10
2019-03-14,Jind,1.0,Moderate,132,PM10
2019-03-15,Jind,1.0,Satisfactory,78,PM10
2019-03-16,Jind,1.0,Satisfactory,99,PM10
2019-03-17,Jind,1.0,Moderate,121,PM2.5
2019-03-18,Jind,1.0,Moderate,152,PM2.5
2019-03-19,Jind,1.0,Moderate,139,PM2.5
2019-03-20,Jind,1.0,Moderate,164,PM2.5
2019-03-21,Jind,1.0,Moderate,142,PM2.5
2019-03-22,Jind,1.0,Satisfactory,91,PM10
2019-03-23,Jind,1.0,Moderate,104,PM10
2019-03-24,Jind,1.0,Satisfactory,96,PM10
2019-03-25,Jind,1.0,Moderate,103,PM10
2019-03-26,Jind,1.0,Moderate,134,PM2.5
2019-03-27,Jind,1.0,Moderate,125,PM10
2019-03-28,Jind,1.0,Poor,211,PM2.5
2019-03-29,Jind,1.0,Moderate,167,PM2.5
2019-03-30,Jind,1.0,Moderate,185,PM10
2019-03-31,Jind,1.0,Moderate,126,PM10
2019-04-01,Jind,1.0,Moderate,128,PM10
2019-04-02,Jind,1.0,Moderate,134,PM10
2019-04-03,Jind,1.0,Moderate,124,PM10
2019-04-04,Jind,1.0,Moderate,145,PM2.5
2019-04-05,Jind,1.0,Moderate,160,PM2.5
2019-04-06,Jind,1.0,Moderate,153,PM10
2019-04-07,Jind,1.0,Poor,206,PM2.5
2019-04-09,Jind,1.0,Moderate,176,PM10
2019-04-10,Jind,1.0,Moderate,147,PM10
2019-04-11,Jind,1.0,Moderate,126,PM10
2019-04-12,Jind,1.0,Moderate,167,PM10
2019-04-13,Jind,1.0,Moderate,129,PM10
2019-04-14,Jind,1.0,Satisfactory,100,PM10
2019-04-15,Jind,1.0,Moderate,114,PM10
2019-04-16,Jind,1.0,Moderate,106,PM10
2019-04-17,Jind,1.0,Satisfactory,75,PM10
2019-04-18,Jind,1.0,Good,50,OZONE
2019-04-19,Jind,1.0,Satisfactory,80,PM10
2019-04-20,Jind,1.0,Moderate,113,PM10
2019-04-21,Jind,1.0,Moderate,186,PM2.5
2019-04-22,Jind,1.0,Moderate,131,PM10
2019-04-23,Jind,1.0,Moderate,153,PM10
2019-04-24,Jind,1.0,Poor,217,PM10
2019-04-25,Jind,1.0,Poor,209,PM10
2019-04-26,Jind,1.0,Moderate,196,PM10
2019-04-27,Jind,1.0,Poor,206,PM10
2019-04-28,Jind,1.0,Poor,242,PM10
2019-04-29,Jind,1.0,Poor,219,PM10
2019-04-30,Jind,1.0,Moderate,182,PM10
2019-05-01,Jind,1.0,Moderate,184,PM10
2019-05-02,Jind,1.0,Moderate,182,PM10
2019-05-03,Jind,1.0,Moderate,110,PM10
2019-05-04,Jind,1.0,Moderate,137,PM10
2019-05-05,Jind,1.0,Moderate,192,PM2.5
2019-05-06,Jind,1.0,Poor,279,PM10
2019-05-07,Jind,1.0,Poor,251,PM2.5
2019-05-08,Jind,1.0,Poor,258,PM2.5
2019-05-09,Jind,1.0,Very Poor,310,PM10
2019-05-10,Jind,1.0,Poor,273,PM10
2019-05-11,Jind,1.0,Moderate,131,PM10
2019-05-12,Jind,1.0,Very Poor,344,PM10
2019-05-13,Jind,1.0,Poor,278,PM2.5
2019-05-14,Jind,1.0,Moderate,131,PM2.5
2019-05-15,Jind,1.0,Moderate,116,PM2.5
2019-05-16,Jind,1.0,Moderate,137,PM10
2019-05-17,Jind,1.0,Moderate,197,PM2.5
2019-05-18,Jind,1.0,Satisfactory,100,PM2.5
2019-05-19,Jind,1.0,Moderate,102,PM10
2019-05-20,Jind,1.0,Moderate,172,PM10
2019-05-21,Jind,1.0,Moderate,133,PM10
2019-05-22,Jind,1.0,Moderate,145,PM10
2019-05-23,Jind,1.0,Moderate,193,PM2.5
2019-05-24,Jind,1.0,Satisfactory,99,PM10
2019-05-25,Jind,1.0,Satisfactory,73,PM10
2019-05-26,Jind,1.0,Satisfactory,93,PM10
2019-05-27,Jind,1.0,Moderate,108,PM10
2019-05-28,Jind,1.0,Moderate,105,PM10
2019-05-29,Jind,1.0,Moderate,130,PM10
2019-05-30,Jind,1.0,Moderate,158,PM2.5
2019-05-31,Jind,1.0,Poor,251,PM10
2019-06-01,Jind,1.0,Moderate,169,PM10
2019-06-02,Jind,1.0,Moderate,178,PM10
2019-06-03,Jind,1.0,Poor,234,PM10
2019-06-04,Jind,1.0,Poor,218,PM10
2019-06-05,Jind,1.0,Moderate,162,PM10
2019-06-06,Jind,1.0,Moderate,159,PM10
2019-06-07,Jind,1.0,Moderate,140,PM10
2019-06-08,Jind,1.0,Moderate,150,PM10
2019-06-09,Jind,1.0,Moderate,146,PM10
2019-06-10,Jind,1.0,Moderate,151,PM10
2019-06-11,Jind,1.0,Poor,234,PM10
2019-06-12,Jind,1.0,Moderate,156,PM10
2019-06-13,Jind,1.0,Moderate,186,PM10
2019-06-14,Jind,1.0,Moderate,167,PM10
2019-06-15,Jind,1.0,Moderate,186,PM10
2019-06-16,Jind,1.0,Moderate,156,PM10
2019-06-17,Jind,1.0,Moderate,124,PM10
2019-06-18,Jind,1.0,Satisfactory,91,PM10
2019-06-19,Jind,1.0,Moderate,128,PM10
2019-06-20,Jind,1.0,Moderate,147,PM10
2019-06-21,Jind,1.0,Moderate,156,OZONE
2019-06-22,Jind,1.0,Moderate,190,OZONE
2019-06-23,Jind,1.0,Moderate,163,OZONE
2019-06-24,Jind,1.0,Satisfactory,89,PM10
2019-06-25,Jind,1.0,Satisfactory,93,PM10
2019-06-26,Jind,1.0,Moderate,133,PM10
2019-06-27,Jind,1.0,Moderate,167,PM10
2019-06-28,Jind,1.0,Moderate,172,PM10
2019-06-29,Jind,1.0,Very Poor,314,PM10
2019-06-30,Jind,1.0,Moderate,191,PM10
2019-07-01,Jind,1.0,Moderate,155,PM10
2019-07-02,Jind,1.0,Moderate,179,OZONE
2019-07-03,Jind,1.0,Poor,228,PM10
2019-07-04,Jind,1.0,Satisfactory,87,PM10
2019-07-07,Jind,1.0,Satisfactory,71,OZONE
2019-07-08,Jind,1.0,Satisfactory,98,PM10
2019-07-09,Jind,1.0,Moderate,121,PM10
2019-07-10,Jind,1.0,Moderate,145,PM10
2019-07-11,Jind,1.0,Poor,259,PM2.5
2019-07-12,Jind,1.0,Poor,263,PM2.5
2019-07-13,Jind,1.0,Very Poor,310,PM10
2019-07-14,Jind,1.0,Poor,270,PM10
2019-07-15,Jind,1.0,Satisfactory,89,PM10
2019-07-16,Jind,1.0,Satisfactory,69,OZONE
2019-07-17,Jind,1.0,Satisfactory,75,OZONE
2019-07-19,Jind,1.0,Moderate,190,OZONE
2019-07-20,Jind,1.0,Satisfactory,89,PM10
2019-07-21,Jind,1.0,Satisfactory,94,OZONE
2019-07-22,Jind,1.0,Satisfactory,73,OZONE
2019-07-23,Jind,1.0,Moderate,159,OZONE
2019-07-24,Jind,1.0,Satisfactory,81,PM2.5
2019-07-25,Jind,1.0,Satisfactory,57,OZONE
2019-07-26,Jind,1.0,Satisfactory,59,PM10
2019-07-27,Jind,1.0,Good,46,OZONE
2019-07-28,Jind,1.0,Good,44,OZONE
2019-07-29,Jind,1.0,Good,48,OZONE
2019-07-30,Jind,1.0,Satisfactory,56,OZONE
2019-07-31,Jind,1.0,Satisfactory,54,OZONE
2019-08-01,Jind,1.0,Satisfactory,72,OZONE
2019-08-02,Jind,1.0,Satisfactory,61,PM10
2019-08-03,Jind,1.0,Satisfactory,60,PM10
2019-08-04,Jind,1.0,Satisfactory,61,PM10
2019-08-05,Jind,1.0,Satisfactory,92,PM10
2019-08-06,Jind,1.0,Moderate,132,PM10
2019-08-07,Jind,1.0,Good,43,OZONE
2019-08-08,Jind,1.0,Satisfactory,54,PM2.5
2019-08-09,Jind,1.0,Satisfactory,52,PM10
2019-08-10,Jind,1.0,Good,43,OZONE
2019-08-11,Jind,1.0,Good,48,PM2.5
2019-08-12,Jind,1.0,Satisfactory,53,PM10
2019-08-13,Jind,1.0,Satisfactory,63,PM10
2019-08-14,Jind,1.0,Satisfactory,64,PM10
2019-08-15,Jind,1.0,Satisfactory,78,PM2.5
2019-08-16,Jind,1.0,Good,40,PM2.5
2019-08-17,Jind,1.0,Good,28,PM2.5
2019-08-18,Jind,1.0,Good,28,CO
2019-08-19,Jind,1.0,Good,44,PM10
2019-08-20,Jind,1.0,Satisfactory,57,OZONE
2019-08-21,Jind,1.0,Satisfactory,88,PM10
2019-08-22,Jind,1.0,Moderate,101,PM10
2019-08-23,Jind,1.0,Satisfactory,97,PM10
2019-08-24,Jind,1.0,Moderate,115,PM2.5
2019-08-25,Jind,1.0,Satisfactory,67,PM2.5
2019-08-26,Jind,1.0,Satisfactory,54,PM2.5
2019-08-27,Jind,1.0,Satisfactory,56,OZONE
2019-08-28,Jind,1.0,Satisfactory,57,PM2.5
2019-08-29,Jind,1.0,Satisfactory,71,PM2.5
2019-08-30,Jind,1.0,Satisfactory,59,PM10
2019-08-31,Jind,1.0,Moderate,105,PM2.5
2019-09-01,Jind,1.0,Satisfactory,82,PM2.5
2019-09-02,Jind,1.0,Satisfactory,57,PM2.5
2019-09-03,Jind,1.0,Satisfactory,86,PM10
2019-09-04,Jind,1.0,Moderate,113,PM2.5
2019-09-05,Jind,1.0,Satisfactory,87,PM2.5
2019-09-06,Jind,1.0,Satisfactory,56,PM10
2019-09-07,Jind,1.0,Satisfactory,62,PM10
2019-09-08,Jind,1.0,Satisfactory,67,PM2.5
2019-09-09,Jind,1.0,Satisfactory,80,PM2.5
2019-09-10,Jind,1.0,Moderate,118,PM2.5
2019-09-11,Jind,1.0,Moderate,106,PM2.5
2019-09-12,Jind,1.0,Moderate,144,PM2.5
2019-09-13,Jind,1.0,Satisfactory,75,PM2.5
2019-09-14,Jind,1.0,Satisfactory,82,PM2.5
2019-09-15,Jind,1.0,Satisfactory,61,PM2.5
2019-09-16,Jind,1.0,Satisfactory,80,PM2.5
2019-09-17,Jind,1.0,Moderate,106,PM2.5
2019-09-18,Jind,1.0,Satisfactory,91,PM10
2019-09-19,Jind,1.0,Satisfactory,63,PM2.5
2019-09-20,Jind,1.0,Satisfactory,53,PM10
2019-09-21,Jind,1.0,Satisfactory,71,PM2.5
2019-09-22,Jind,1.0,Satisfactory,62,PM10
2019-09-23,Jind,1.0,Good,48,OZONE
2019-09-24,Jind,1.0,Satisfactory,54,OZONE
2019-09-25,Jind,1.0,Satisfactory,60,PM10
2019-09-26,Jind,1.0,Satisfactory,63,PM10
2019-09-27,Jind,1.0,Good,47,PM10
2019-09-28,Jind,1.0,Good,38,PM10
2019-09-29,Jind,1.0,Good,34,PM10
2019-09-30,Jind,1.0,Good,40,PM2.5
2019-10-01,Jind,1.0,Satisfactory,63,PM10
2019-10-02,Jind,1.0,Satisfactory,80,PM2.5
2019-10-03,Jind,1.0,Moderate,123,PM2.5
2019-10-04,Jind,1.0,Satisfactory,75,PM10
2019-10-05,Jind,1.0,Satisfactory,69,PM10
2019-10-06,Jind,1.0,Satisfactory,97,PM10
2019-10-07,Jind,1.0,Moderate,108,PM10
2019-10-08,Jind,1.0,Satisfactory,91,PM10
2019-10-09,Jind,1.0,Moderate,108,PM2.5
2019-10-10,Jind,1.0,Moderate,129,PM2.5
2019-10-11,Jind,1.0,Moderate,131,PM2.5
2019-10-12,Jind,1.0,Poor,205,PM2.5
2019-10-13,Jind,1.0,Poor,247,PM2.5
2019-10-14,Jind,1.0,Poor,216,PM2.5
2019-10-15,Jind,1.0,Poor,257,PM2.5
2019-10-16,Jind,1.0,Poor,297,PM2.5
2019-10-17,Jind,1.0,Poor,295,PM2.5
2019-10-18,Jind,1.0,Poor,253,PM2.5
2019-10-19,Jind,1.0,Moderate,172,PM2.5
2019-10-20,Jind,1.0,Poor,206,PM2.5
2019-10-21,Jind,1.0,Poor,220,PM2.5
2019-10-22,Jind,1.0,Poor,206,PM2.5
2019-10-23,Jind,1.0,Poor,266,PM2.5
2019-10-24,Jind,1.0,Very Poor,303,PM2.5
2019-10-25,Jind,1.0,Very Poor,301,PM2.5
2019-10-26,Jind,1.0,Poor,290,PM2.5
2019-10-27,Jind,1.0,Very Poor,338,PM2.5
2019-10-28,Jind,1.0,Very Poor,373,PM2.5
2019-10-29,Jind,1.0,Very Poor,355,PM2.5
2019-10-30,Jind,1.0,Severe,415,PM2.5
2019-10-31,Jind,1.0,Very Poor,400,PM2.5
2019-11-01,Jind,1.0,Severe,480,PM2.5
2019-11-02,Jind,1.0,Severe,459,PM2.5
2019-11-03,Jind,1.0,Severe,491,PM2.5
2019-11-04,Jind,1.0,Severe,448,PM2.5
2019-11-05,Jind,1.0,Very Poor,344,PM2.5
2019-11-06,Jind,1.0,Poor,233,PM2.5
2019-11-07,Jind,1.0,Moderate,164,PM2.5
2019-11-08,Jind,1.0,Poor,238,PM2.5
2019-11-09,Jind,1.0,Poor,219,PM2.5
2019-11-10,Jind,1.0,Very Poor,306,PM2.5
2019-11-11,Jind,1.0,Very Poor,368,PM2.5
2019-11-12,Jind,1.0,Severe,446,PM2.5
2019-11-13,Jind,1.0,Severe,445,PM2.5
2019-11-14,Jind,1.0,Severe,410,PM2.5
2019-11-15,Jind,1.0,Severe,404,PM2.5
2019-11-16,Jind,1.0,Very Poor,329,PM2.5
2019-11-17,Jind,1.0,Poor,209,PM2.5
2019-11-18,Jind,1.0,Poor,280,PM2.5
2019-11-19,Jind,1.0,Poor,228,PM2.5
2019-11-20,Jind,1.0,Poor,298,PM2.5
2019-11-21,Jind,1.0,Very Poor,353,PM2.5
2019-11-22,Jind,1.0,Very Poor,346,PM2.5
2019-11-23,Jind,1.0,Poor,273,PM2.5
2019-11-24,Jind,1.0,Poor,207,PM2.5
2019-11-25,Jind,1.0,Poor,230,PM2.5
2019-11-26,Jind,1.0,Moderate,169,PM2.5
2019-11-27,Jind,1.0,Satisfactory,59,PM2.5
2019-11-28,Jind,1.0,Satisfactory,95,PM2.5
2019-11-29,Jind,1.0,Satisfactory,64,PM2.5
2019-11-30,Jind,1.0,Moderate,118,PM2.5
2019-12-01,Jind,1.0,Poor,222,PM2.5
2019-12-02,Jind,1.0,Poor,258,PM2.5
2019-12-03,Jind,1.0,Poor,247,PM2.5
2019-12-04,Jind,1.0,Poor,275,PM2.5
2019-12-05,Jind,1.0,Very Poor,318,PM2.5
2019-12-06,Jind,1.0,Very Poor,343,PM2.5
2019-12-07,Jind,1.0,Very Poor,330,PM2.5
2019-12-08,Jind,1.0,Very Poor,308,PM2.5
2019-12-09,Jind,1.0,Poor,283,PM2.5
2019-12-10,Jind,1.0,Poor,290,PM2.5
2019-12-11,Jind,1.0,Very Poor,344,PM2.5
2019-12-12,Jind,1.0,Very Poor,382,PM2.5
2019-12-13,Jind,1.0,Poor,210,PM2.5
2019-12-14,Jind,1.0,Moderate,110,PM2.5
2019-12-15,Jind,1.0,Moderate,159,PM2.5
2019-12-16,Jind,1.0,Moderate,131,PM2.5
2019-12-17,Jind,1.0,Satisfactory,99,PM2.5
2019-12-18,Jind,1.0,Poor,217,PM2.5
2019-12-19,Jind,1.0,Poor,240,PM2.5
2019-12-20,Jind,1.0,Very Poor,320,PM2.5
2019-12-21,Jind,1.0,Very Poor,301,PM2.5
2019-12-22,Jind,1.0,Poor,247,PM2.5
2019-12-23,Jind,1.0,Poor,258,PM2.5
2019-12-24,Jind,1.0,Very Poor,308,PM2.5
2019-12-25,Jind,1.0,Poor,281,PM2.5
2019-12-26,Jind,1.0,Very Poor,306,PM2.5
2019-12-27,Jind,1.0,Very Poor,324,PM2.5
2019-12-28,Jind,1.0,Poor,272,PM2.5
2019-12-29,Jind,1.0,Very Poor,336,PM2.5
2019-12-30,Jind,1.0,Poor,212,PM2.5
2019-12-31,Jind,1.0,Very Poor,321,PM2.5
2020-01-01,Jind,1.0,Very Poor,341,PM2.5
2020-01-02,Jind,1.0,Very Poor,305,PM2.5
2020-01-03,Jind,1.0,Poor,223,PM2.5
2020-01-04,Jind,1.0,Poor,282,PM2.5
2020-01-05,Jind,1.0,Poor,296,PM2.5
2020-01-06,Jind,1.0,Poor,296,PM2.5
2020-01-07,Jind,1.0,Satisfactory,95,PM2.5
2020-01-08,Jind,1.0,Moderate,144,PM2.5
2020-01-09,Jind,1.0,Satisfactory,98,PM2.5
2020-01-10,Jind,1.0,Moderate,197,PM2.5
2020-01-11,Jind,1.0,Moderate,195,PM2.5
2020-01-12,Jind,1.0,Poor,217,PM2.5
2020-01-13,Jind,1.0,Poor,280,PM2.5
2020-01-14,Jind,1.0,Moderate,110,PM2.5
2020-01-15,Jind,1.0,Satisfactory,92,PM2.5
2020-01-16,Jind,1.0,Moderate,137,PM2.5
2020-01-17,Jind,1.0,Moderate,167,PM2.5
2020-01-18,Jind,1.0,Moderate,148,PM2.5
2020-01-19,Jind,1.0,Moderate,175,PM2.5
2020-01-20,Jind,1.0,Moderate,174,PM2.5
2020-01-21,Jind,1.0,Poor,300,PM2.5
2020-01-22,Jind,1.0,Poor,201,PM2.5
2020-01-23,Jind,1.0,Moderate,105,PM2.5
2020-01-24,Jind,1.0,Satisfactory,97,PM2.5
2020-01-25,Jind,1.0,Moderate,180,PM2.5
2020-01-26,Jind,1.0,Poor,260,PM2.5
2020-01-27,Jind,1.0,Poor,260,PM2.5
2020-01-28,Jind,1.0,Moderate,188,PM2.5
2020-01-29,Jind,1.0,Satisfactory,94,PM2.5
2020-01-30,Jind,1.0,Moderate,107,PM2.5
2020-01-31,Jind,1.0,Satisfactory,99,PM2.5
2020-02-01,Jind,1.0,Moderate,146,PM2.5
2020-02-02,Jind,1.0,Moderate,142,PM2.5
2020-02-03,Jind,1.0,Poor,224,PM2.5
2020-02-04,Jind,1.0,Moderate,184,PM2.5
2020-02-05,Jind,1.0,Poor,241,PM2.5
2020-02-06,Jind,1.0,Moderate,175,PM2.5
2020-02-07,Jind,1.0,Poor,210,PM2.5
2020-02-08,Jind,1.0,Poor,230,PM2.5
2020-02-09,Jind,1.0,Poor,216,PM2.5
2020-02-10,Jind,1.0,Poor,247,PM2.5
2020-02-11,Jind,1.0,Poor,267,PM2.5
2020-02-12,Jind,1.0,Poor,288,PM2.5
2020-02-13,Jind,1.0,Moderate,115,PM2.5
2020-02-14,Jind,1.0,Moderate,110,PM2.5
2020-02-15,Jind,1.0,Moderate,113,PM10
2020-02-16,Jind,1.0,Moderate,178,PM2.5
2020-02-17,Jind,1.0,Poor,208,PM2.5
2020-02-18,Jind,1.0,Moderate,131,PM2.5
2020-02-19,Jind,1.0,Poor,211,PM2.5
2020-02-20,Jind,1.0,Poor,215,PM2.5
2020-02-21,Jind,1.0,Satisfactory,93,PM2.5
2020-02-22,Jind,1.0,Satisfactory,67,O3
2020-02-23,Jind,1.0,Moderate,122,PM2.5
2020-02-24,Jind,1.0,Moderate,124,PM2.5
2020-02-25,Jind,1.0,Moderate,169,PM2.5
2020-02-26,Jind,1.0,Poor,232,PM2.5
2020-02-27,Jind,1.0,Poor,225,PM2.5
2020-02-28,Jind,1.0,Poor,221,PM2.5
2020-02-29,Jind,1.0,Moderate,152,PM2.5
2020-03-01,Jind,1.0,Satisfactory,54,O3
2020-03-02,Jind,1.0,Moderate,118,PM2.5
2020-03-03,Jind,1.0,Moderate,112,PM2.5
2020-03-04,Jind,1.0,Moderate,134,PM2.5
2020-03-06,Jind,1.0,Good,46,O3
2020-03-08,Jind,1.0,Satisfactory,73,PM2.5
2020-03-09,Jind,1.0,Satisfactory,67,PM2.5
2020-03-10,Jind,1.0,Moderate,120,PM2.5
2020-03-11,Jind,1.0,Satisfactory,75,PM2.5
2020-03-12,Jind,1.0,Satisfactory,70,PM2.5
2020-03-13,Jind,1.0,Satisfactory,77,PM10
2020-03-14,Jind,1.0,Moderate,148,PM2.5
2020-03-15,Jind,1.0,Satisfactory,78,PM2.5
2020-03-16,Jind,1.0,Satisfactory,97,PM2.5
2020-03-17,Jind,1.0,Moderate,129,PM2.5
2020-03-18,Jind,1.0,Moderate,179,PM2.5
2020-03-19,Jind,1.0,Moderate,153,PM2.5
2020-03-20,Jind,1.0,Moderate,141,PM2.5
2020-03-21,Jind,1.0,Moderate,133,PM2.5
2020-03-22,Jind,1.0,Moderate,152,PM2.5
2020-03-24,Jind,1.0,Satisfactory,84,PM2.5
2020-03-25,Jind,1.0,Satisfactory,74,PM2.5
2020-03-26,Jind,1.0,Satisfactory,68,PM2.5
2020-03-27,Jind,1.0,Satisfactory,56,PM2.5
2020-03-28,Jind,1.0,Good,49,O3
2020-03-29,Jind,1.0,Satisfactory,59,O3
2020-03-30,Jind,1.0,Satisfactory,62,O3
2020-03-31,Jind,1.0,Satisfactory,59,O3
2020-04-01,Jind,1.0,Satisfactory,56,PM2.5
2020-04-02,Jind,1.0,Satisfactory,61,O3
2020-04-03,Jind,1.0,Satisfactory,68,O3
2020-04-04,Jind,1.0,Satisfactory,68,O3
2020-04-05,Jind,1.0,Satisfactory,82,PM2.5
2020-04-06,Jind,1.0,Satisfactory,90,PM2.5
2020-04-07,Jind,1.0,Satisfactory,69,PM10
2020-04-08,Jind,1.0,Satisfactory,59,PM10
2020-04-09,Jind,1.0,Satisfactory,68,PM2.5
2020-04-10,Jind,1.0,Satisfactory,95,PM2.5
2020-04-11,Jind,1.0,Satisfactory,78,PM2.5
2020-04-12,Jind,1.0,Satisfactory,74,PM10
2020-04-13,Jind,1.0,Satisfactory,97,PM2.5
2020-04-14,Jind,1.0,Satisfactory,98,PM2.5
2020-04-15,Jind,1.0,Poor,282,PM2.5
2020-04-16,Jind,1.0,Moderate,154,PM2.5
2020-04-17,Jind,1.0,Satisfactory,90,PM10
2020-04-18,Jind,1.0,Satisfactory,74,PM10
2020-04-19,Jind,1.0,Satisfactory,61,O3
2020-04-20,Jind,1.0,Moderate,106,PM10
2020-04-21,Jind,1.0,Satisfactory,64,O3
2020-04-22,Jind,1.0,Satisfactory,90,PM10
2020-04-23,Jind,1.0,Moderate,127,PM10
2020-04-24,Jind,1.0,Moderate,114,PM10
2020-04-25,Jind,1.0,Moderate,114,PM10
2020-04-26,Jind,1.0,Moderate,170,PM10
2020-04-27,Jind,1.0,Satisfactory,75,PM10
2020-04-28,Jind,1.0,Satisfactory,84,O3
2020-04-29,Jind,1.0,Moderate,114,PM10
2020-04-30,Jind,1.0,Moderate,159,PM10
2020-05-01,Jind,1.0,Moderate,156,PM10
2020-05-02,Jind,1.0,Moderate,136,PM10
2020-05-03,Jind,1.0,Satisfactory,96,PM10
2020-05-05,Jind,1.0,Moderate,103,O3
2020-05-06,Jind,1.0,Moderate,141,PM10
2020-05-07,Jind,1.0,Satisfactory,97,O3
2020-05-10,Jind,1.0,Moderate,129,PM10
2020-05-11,Jind,1.0,Moderate,107,O3
2020-05-22,Jind,1.0,Moderate,154,PM10
2020-05-23,Jind,1.0,Moderate,165,PM10
2020-05-24,Jind,1.0,Moderate,199,PM10
2020-05-25,Jind,1.0,Moderate,167,PM2.5
2020-05-26,Jind,1.0,Moderate,165,PM2.5
2020-05-27,Jind,1.0,Moderate,131,PM2.5
2020-05-28,Jind,1.0,Moderate,176,PM10
2020-05-30,Jind,1.0,Satisfactory,98,O3
2020-05-31,Jind,1.0,Satisfactory,91,O3
2020-06-01,Jind,1.0,Satisfactory,91,CO
2020-06-02,Jind,1.0,Moderate,103,O3
2020-06-04,Jind,1.0,Moderate,119,O3
2020-06-05,Jind,1.0,Satisfactory,97,O3
2020-06-06,Jind,1.0,Satisfactory,96,O3
2020-06-09,Jind,1.0,Moderate,116,O3
2020-06-10,Jind,1.0,Moderate,118,PM10
2020-06-11,Jind,1.0,Satisfactory,89,O3
2020-06-12,Jind,1.0,Moderate,109,PM10
2020-06-16,Jind,1.0,Moderate,182,O3
2020-06-17,Jind,1.0,Moderate,178,O3
2020-06-18,Jind,1.0,Moderate,193,O3
2020-06-19,Jind,1.0,Moderate,183,PM10
2020-06-20,Jind,1.0,Moderate,146,PM10
2020-06-21,Jind,1.0,Satisfactory,72,PM10
2020-06-22,Jind,1.0,Satisfactory,88,O3
2020-06-23,Jind,1.0,Satisfactory,73,PM2.5
2020-06-24,Jind,1.0,Satisfactory,59,O3
2020-06-25,Jind,1.0,Satisfactory,64,O3
2020-06-26,Jind,1.0,Satisfactory,58,O3
2020-06-27,Jind,1.0,Moderate,107,PM10
2020-06-28,Jind,1.0,Poor,204,PM10
2020-06-29,Jind,1.0,Poor,268,PM10
2020-06-30,Jind,1.0,Moderate,133,PM10
2020-07-01,Jind,1.0,Moderate,110,PM10
2020-07-02,Jind,1.0,Moderate,125,CO
2020-07-03,Jind,1.0,Moderate,153,PM2.5
2020-07-07,Jind,1.0,Satisfactory,73,PM2.5
2020-07-08,Jind,1.0,Good,38,O3
2020-07-09,Jind,1.0,Satisfactory,60,O3
2020-07-10,Jind,1.0,Satisfactory,65,O3
2020-07-11,Jind,1.0,Satisfactory,57,O3
2020-07-12,Jind,1.0,Satisfactory,72,O3
2020-07-13,Jind,1.0,Satisfactory,57,O3
2020-07-14,Jind,1.0,Moderate,154,PM10
2020-07-15,Jind,1.0,Moderate,113,PM10
2020-07-16,Jind,1.0,Satisfactory,63,PM2.5
2020-07-18,Jind,1.0,Satisfactory,80,PM2.5
2020-07-19,Jind,1.0,Good,42,O3
2020-07-20,Jind,1.0,Satisfactory,78,O3
2020-07-22,Jind,1.0,Good,48,PM2.5
2020-07-23,Jind,1.0,Satisfactory,100,O3
2020-07-24,Jind,1.0,Satisfactory,89,O3
2020-07-25,Jind,1.0,Satisfactory,74,PM2.5
2020-07-26,Jind,1.0,Satisfactory,82,O3
2020-07-27,Jind,1.0,Satisfactory,91,O3
2020-07-28,Jind,1.0,Satisfactory,68,PM10
2020-07-29,Jind,1.0,Satisfactory,69,PM10
2020-07-30,Jind,1.0,Satisfactory,67,O3
2020-07-31,Jind,1.0,Satisfactory,65,O3
2020-08-01,Jind,1.0,Satisfactory,54,O3
2020-08-03,Jind,1.0,Satisfactory,59,PM10
2020-08-04,Jind,1.0,Satisfactory,56,CO
2020-08-05,Jind,1.0,Satisfactory,61,PM10
2020-08-07,Jind,1.0,Satisfactory,66,CO
2020-08-08,Jind,1.0,Satisfactory,59,CO
2020-08-09,Jind,1.0,Satisfactory,56,PM2.5
2020-08-10,Jind,1.0,Satisfactory,58,PM2.5
2020-08-11,Jind,1.0,Satisfactory,58,PM2.5
2020-08-12,Jind,1.0,Satisfactory,79,CO
2020-08-13,Jind,1.0,Good,44,PM10
2020-08-14,Jind,1.0,Satisfactory,83,CO
2020-08-15,Jind,1.0,Good,46,PM2.5
2020-08-16,Jind,1.0,Satisfactory,60,PM2.5
2020-08-17,Jind,1.0,Satisfactory,79,CO
2020-08-18,Jind,1.0,Satisfactory,100,CO
2020-08-19,Jind,1.0,Good,39,CO
2020-08-20,Jind,1.0,Good,38,SO2
2020-08-22,Jind,1.0,Satisfactory,73,CO
2020-08-23,Jind,1.0,Satisfactory,66,CO
2020-08-24,Jind,1.0,Satisfactory,56,CO
2020-08-25,Jind,1.0,Satisfactory,57,CO
2020-08-27,Jind,1.0,Good,39,PM10
2020-08-28,Jind,1.0,Good,38,PM10
2020-08-29,Jind,1.0,Good,46,NO2
2020-08-30,Jind,1.0,Satisfactory,74,CO
2020-08-31,Jind,1.0,Good,38,CO
2020-09-01,Jind,1.0,Good,47,CO
2020-09-02,Jind,1.0,Satisfactory,54,CO
2020-09-03,Jind,1.0,Good,50,PM2.5
2020-09-04,Jind,1.0,Satisfactory,64,PM2.5
2020-09-05,Jind,1.0,Satisfactory,90,PM2.5
2020-09-06,Jind,1.0,Good,39,PM2.5
2020-09-07,Jind,1.0,Satisfactory,56,PM2.5
2020-09-08,Jind,1.0,Satisfactory,51,PM2.5
2020-09-09,Jind,1.0,Satisfactory,82,PM2.5
2020-09-10,Jind,1.0,Satisfactory,90,PM10
2020-09-12,Jind,1.0,Moderate,103,PM10
2020-09-13,Jind,1.0,Moderate,149,PM2.5
2020-09-14,Jind,1.0,Moderate,107,PM10
2020-09-15,Jind,1.0,Moderate,129,PM2.5
2020-09-17,Jind,1.0,Moderate,110,PM10
2020-09-18,Jind,1.0,Satisfactory,99,PM10
2020-09-19,Jind,1.0,Satisfactory,94,PM10
2020-09-20,Jind,1.0,Moderate,143,PM2.5
2020-09-21,Jind,1.0,Moderate,121,PM10
2020-09-22,Jind,1.0,Moderate,119,PM2.5
2020-09-23,Jind,1.0,Satisfactory,78,CO
2020-09-24,Jind,1.0,Satisfactory,66,PM10
2020-09-25,Jind,1.0,Moderate,127,PM2.5
2020-09-26,Jind,1.0,Moderate,166,PM2.5
2020-09-27,Jind,1.0,Satisfactory,85,PM10
2020-09-28,Jind,1.0,Moderate,127,PM10
2020-09-29,Jind,1.0,Moderate,168,PM2.5
2020-09-30,Jind,1.0,Moderate,142,PM10
2020-10-01,Jind,1.0,Moderate,134,PM10
2020-10-02,Jind,1.0,Moderate,183,PM2.5
2020-10-03,Jind,1.0,Moderate,187,PM2.5
2020-10-04,Jind,1.0,Moderate,165,PM2.5
2020-10-05,Jind,1.0,Moderate,191,PM2.5
2020-10-06,Jind,1.0,Moderate,169,PM2.5
2020-10-07,Jind,1.0,Poor,255,PM2.5
2020-10-08,Jind,1.0,Poor,202,PM2.5
2020-10-09,Jind,1.0,Moderate,198,PM2.5
2020-10-10,Jind,1.0,Poor,270,PM2.5
2020-10-11,Jind,1.0,Poor,244,PM2.5
2020-10-12,Jind,1.0,Poor,294,PM2.5
2020-10-13,Jind,1.0,Very Poor,305,PM2.5
2020-10-14,Jind,1.0,Very Poor,308,PM2.5
2020-10-15,Jind,1.0,Poor,286,PM2.5
2020-10-16,Jind,1.0,Poor,263,PM2.5
2020-10-17,Jind,1.0,Poor,290,PM2.5
2020-10-18,Jind,1.0,Poor,271,PM2.5
2020-10-19,Jind,1.0,Poor,277,PM2.5
2020-10-20,Jind,1.0,Poor,272,PM2.5
2020-10-21,Jind,1.0,Poor,253,PM2.5
2020-10-22,Jind,1.0,Poor,287,PM2.5
2020-10-23,Jind,1.0,Poor,294,PM2.5
2020-10-24,Jind,1.0,Very Poor,327,PM2.5
2020-10-25,Jind,1.0,Very Poor,354,PM2.5
2020-10-26,Jind,1.0,Very Poor,334,PM2.5
2020-10-27,Jind,1.0,Very Poor,326,PM2.5
2020-10-28,Jind,1.0,Very Poor,305,PM2.5
2020-10-29,Jind,1.0,Severe,405,PM2.5
2020-10-30,Jind,1.0,Very Poor,388,PM2.5
2020-10-31,Jind,1.0,Severe,405,PM2.5
2020-11-01,Jind,1.0,Severe,425,PM2.5
2020-11-02,Jind,1.0,Very Poor,379,PM2.5
2020-11-03,Jind,1.0,Very Poor,316,PM2.5
2020-11-04,Jind,1.0,Very Poor,367,PM2.5
2020-11-05,Jind,1.0,Severe,427,PM2.5
2020-11-06,Jind,1.0,Severe,414,PM2.5
2020-11-07,Jind,1.0,Severe,440,PM2.5
2020-11-08,Jind,1.0,Severe,441,PM2.5
2020-11-09,Jind,1.0,Severe,464,PM2.5
2020-11-10,Jind,1.0,Severe,475,PM2.5
2020-11-11,Jind,1.0,Very Poor,351,PM2.5
2020-11-12,Jind,1.0,Very Poor,305,PM2.5
2020-11-13,Jind,1.0,Very Poor,356,PM2.5
2020-11-14,Jind,1.0,Severe,459,PM2.5
2020-11-15,Jind,1.0,Severe,457,PM2.5
2020-11-17,Jind,1.0,Satisfactory,89,PM2.5
2020-11-18,Jind,1.0,Moderate,171,PM2.5
2020-11-19,Jind,1.0,Poor,248,PM2.5
2020-11-20,Jind,1.0,Poor,294,PM2.5
2020-11-21,Jind,1.0,Poor,257,PM2.5
2020-11-22,Jind,1.0,Poor,272,PM2.5
2020-11-23,Jind,1.0,Poor,284,PM2.5
2020-11-24,Jind,1.0,Poor,286,PM2.5
2020-11-25,Jind,1.0,Very Poor,367,PM2.5
2020-11-26,Jind,1.0,Poor,222,PM2.5
2020-11-27,Jind,1.0,Satisfactory,80,PM2.5
2020-11-28,Jind,1.0,Poor,201,PM2.5